DateTime,F1_A11,F1_S11,BsB_S11,BsG_S11,BsR_S11,BbsB_S11,BbsG_S11,BbsR_S11,BaB_A11,BaG_A11,BaR_A11,T_S11,U_S11,P_S11,T1_A11
2016-08-04T00:00:00Z,0000388,20000608,,,,,,,,,,26.8,01.1,0673.3,34.8
2016-08-04T00:01:00Z,0000388,20000608,,,,,,,,,,26.8,01.1,0673.3,34.8
2016-08-04T00:02:00Z,0000388,20000608,,,,,,,,,,26.8,01.1,0673.3,34.8
2016-08-04T00:03:00Z,0000388,60000608,,,,,,,,,,26.8,01.1,0673.3,34.8
2016-08-04T00:04:00Z,0000388,41000608,0001.57,0001.12,0001.12,0000.03,0000.39,0000.11,0000.03,0000.18,0000.04,26.9,01.2,0674.2,34.8
2016-08-04T00:05:00Z,0000388,01000608,0002.34,0001.06,0000.73,0000.41,0000.02,0000.55,0000.35,0000.18,0000.11,26.9,01.1,0674.3,34.8
2016-08-04T00:06:00Z,0000388,01000608,0001.33,0000.72,0001.11,0000.31,0000.52,0000.25,0000.01,0000.20,0000.40,26.9,01.2,0674.3,34.8
2016-08-04T00:07:00Z,0000388,01000608,0000.70,0001.08,0000.90,0000.25,0000.28,0000.24,0000.11,-000.08,0000.02,26.9,01.2,0674.3,34.8
2016-08-04T00:08:00Z,0000388,01000608,0001.17,0001.75,0000.24,-000.08,0000.42,0000.44,0000.18,0000.23,0000.21,26.8,01.2,0674.3,34.8
2016-08-04T00:09:00Z,0000388,01000608,0001.41,0001.35,-000.18,-000.17,0000.41,0000.09,0000.14,0000.06,0000.02,26.8,01.2,0674.3,34.8
2016-08-04T00:10:00Z,0000388,01000608,0002.53,0000.88,0000.79,0000.33,0000.22,-000.19,-000.04,0000.03,-000.01,26.8,01.2,0674.3,34.8
2016-08-04T00:11:00Z,0000388,01000608,0001.81,0001.33,0000.82,0000.20,0000.13,0000.27,0000.20,-000.02,0000.05,26.8,01.2,0674.3,34.8
2016-08-04T00:12:00Z,0000388,01000608,0000.60,0001.38,0000.89,0000.03,0000.14,0000.22,-000.07,0000.27,0000.04,26.8,01.1,0674.4,34.8
2016-08-04T00:13:00Z,0000388,01000608,0001.59,0001.43,0000.56,0000.72,0000.06,0000.41,0000.12,0000.18,0000.15,26.8,01.1,0674.4,34.8
2016-08-04T00:14:00Z,0000388,01000608,0001.26,0001.27,0000.54,0000.50,0000.41,0000.28,0000.28,0000.09,0000.02,26.8,01.1,0674.3,34.8
2016-08-04T00:15:00Z,0000388,01000608,0001.39,0001.51,0000.23,0000.61,0000.25,0000.53,-000.09,0000.09,0000.16,26.8,01.1,0674.4,34.8
2016-08-04T00:16:00Z,0000388,01000608,0001.86,0001.27,0000.30,-000.13,0000.50,0000.03,0000.12,0000.04,-000.07,26.8,01.1,0674.3,34.8
2016-08-04T00:17:00Z,0000388,01000608,0002.09,0001.20,0000.30,0000.85,-000.12,-000.22,0000.28,0000.10,0000.31,26.8,01.1,0674.4,34.8
2016-08-04T00:18:00Z,0000388,01000608,0001.88,0000.94,0000.42,0000.55,0000.58,0000.00,0000.23,0000.09,-000.24,26.8,01.1,0674.3,34.8
2016-08-04T00:19:00Z,0000388,01000608,0002.27,0001.20,0000.33,0000.31,-000.17,0000.28,0000.12,0000.35,0000.57,26.8,01.2,0674.3,34.8
2016-08-04T00:20:00Z,0000388,01000608,0001.36,0001.02,0000.61,-000.05,0000.09,0000.05,0000.23,-000.04,-000.05,26.8,01.2,0674.3,34.8
2016-08-04T00:21:00Z,0000388,01000608,0001.30,0001.11,0000.51,0000.46,0000.00,0000.08,-000.09,0000.05,-000.01,26.8,01.2,0674.3,34.8
2016-08-04T00:22:00Z,0000388,01000608,0001.45,0001.52,0000.49,0000.11,0000.39,0000.35,0000.03,0000.14,0000.03,26.8,01.2,0674.3,34.8
2016-08-04T00:23:00Z,0000388,01000608,0002.33,0001.20,0000.61,-000.47,0000.13,-000.08,0000.09,0000.05,-000.06,26.8,01.1,0674.3,34.8
2016-08-04T00:24:00Z,0000388,01000608,0000.72,0001.57,0000.52,0000.50,0000.27,-000.05,0000.01,-000.03,0000.29,26.8,01.1,0674.4,34.8
2016-08-04T00:25:00Z,0000388,01000608,0001.18,0001.35,0000.51,0000.06,0000.30,-000.06,0000.35,0000.39,0000.09,26.8,01.2,0674.4,34.8
2016-08-04T00:26:00Z,0000388,01000608,0001.58,0001.14,0000.26,0000.30,0000.06,0000.00,-000.06,-000.17,-000.03,26.8,01.0,0674.4,34.8
2016-08-04T00:27:00Z,0000388,01000608,0001.36,0001.53,0000.06,0000.39,-000.17,0000.02,0000.09,0000.31,-000.10,26.8,01.0,0674.4,34.8
2016-08-04T00:28:00Z,0000388,01000608,0001.09,0001.04,0000.57,0000.63,-000.17,0000.46,0000.12,0000.10,0000.12,26.8,01.0,0674.4,34.8
2016-08-04T00:29:00Z,0000388,01000608,0000.64,0001.21,0000.64,0000.44,0000.25,-000.28,-000.05,-000.15,-000.03,26.8,01.0,0674.4,34.8
2016-08-04T00:30:00Z,0000388,01000608,0002.02,0001.22,0000.21,0000.58,-000.08,0000.06,0000.22,0000.07,0000.27,26.8,01.0,0674.4,34.8
2016-08-04T00:31:00Z,0000388,01000608,0001.70,0000.81,0000.56,0000.58,0000.03,0000.50,0000.22,0000.13,0000.28,26.8,01.0,0674.4,34.8
2016-08-04T00:32:00Z,0000388,01000608,0002.43,0001.05,0000.70,-000.24,0000.17,0000.02,0000.13,0000.10,-000.34,26.8,01.0,0674.4,34.8
2016-08-04T00:33:00Z,0000388,01000608,0001.62,0001.98,0000.32,0000.05,-000.27,0000.20,0000.80,0000.82,0000.82,26.7,01.1,0674.4,34.8
2016-08-04T00:34:00Z,0000388,01000608,0004.85,0003.48,0001.81,0000.45,0000.36,0000.36,0008.78,0007.68,0006.17,26.7,01.0,0674.4,34.8
2016-08-04T00:35:00Z,0000388,01000608,0006.43,0004.65,0002.54,0000.83,0000.83,-000.02,0018.07,0015.97,0012.63,26.7,01.1,0674.4,34.8
2016-08-04T00:36:00Z,0000388,01000608,0002.98,0002.50,0001.09,0000.36,0000.55,0000.16,0007.97,0006.77,0005.48,26.7,01.1,0674.4,34.8
2016-08-04T00:37:00Z,0000388,01000608,0006.70,0005.48,0002.89,0000.88,0001.09,0000.80,0017.09,0015.25,0012.31,26.7,01.1,0674.4,34.8
2016-08-04T00:38:00Z,0000388,01000608,0013.95,0010.83,0006.46,0002.16,0001.42,0001.30,0045.86,0040.20,0031.91,26.7,01.0,0674.4,34.8
2016-08-04T00:39:00Z,0000388,01000608,0006.80,0004.12,0003.17,0001.32,0000.69,0000.52,0022.61,0020.11,0015.59,26.7,01.0,0674.3,34.8
2016-08-04T00:40:00Z,0000388,01000608,0003.31,0002.52,0001.47,0000.71,0000.48,0000.27,0007.74,0007.13,0005.91,26.7,01.1,0674.3,34.8
2016-08-04T00:41:00Z,0000388,01000608,0003.06,0001.89,0000.88,-000.55,0000.55,0000.60,0001.47,0001.03,0000.81,26.7,01.1,0674.3,34.8
2016-08-04T00:42:00Z,0000388,01000608,0001.73,0000.99,0000.62,-000.17,0000.25,0000.09,0000.62,0000.66,0000.62,26.7,01.1,0674.3,34.8
2016-08-04T00:43:00Z,0000388,01000608,0001.27,0001.12,0000.78,0000.42,0000.59,0000.35,0000.98,0000.78,0000.59,26.7,01.1,0674.3,34.8
2016-08-04T00:44:00Z,0000388,01000608,0001.85,0001.51,0000.97,0000.55,0000.36,0000.20,0000.91,0000.96,0000.88,26.7,01.1,0674.3,34.8
2016-08-04T00:45:00Z,0000388,01000608,0002.13,0001.42,0001.01,0000.74,0000.17,-000.06,0002.32,0001.83,0001.30,26.7,01.1,0674.3,34.8
2016-08-04T00:46:00Z,0000388,01000608,0005.86,0003.55,0002.28,-000.05,0000.72,0000.69,0012.17,0010.78,0008.33,26.7,01.1,0674.3,34.8
2016-08-04T00:47:00Z,0000388,01000608,0012.35,0008.83,0005.46,0001.91,0001.33,0001.07,0037.34,0032.64,0026.02,26.7,01.1,0674.3,34.8
2016-08-04T00:48:00Z,0000388,01000608,0014.49,0010.49,0005.85,0002.62,0001.95,0001.02,0049.16,0043.79,0035.25,26.7,01.0,0674.3,34.8
2016-08-04T00:49:00Z,0000388,01000608,0011.61,0008.30,0004.74,0002.29,0001.36,0000.41,0038.03,0033.31,0026.21,26.7,01.0,0674.3,34.8
2016-08-04T00:50:00Z,0000388,01000608,0014.86,0011.39,0006.53,0003.00,0001.64,0001.70,0047.99,0042.27,0033.75,26.7,01.0,0674.4,34.8
2016-08-04T00:51:00Z,0000388,01000608,0013.43,0009.89,0005.59,0002.57,0001.76,0001.19,0046.76,0041.46,0032.87,26.6,00.9,0674.4,34.8
2016-08-04T00:52:00Z,0000388,01000608,0010.27,0007.13,0004.31,0001.41,0001.28,0001.33,0029.62,0026.11,0020.98,26.6,00.9,0674.4,34.8
2016-08-04T00:53:00Z,0000388,01000608,0010.83,0007.02,0003.83,0001.76,0000.92,0000.41,0031.36,0027.36,0021.27,26.7,00.9,0674.4,34.8
2016-08-04T00:54:00Z,0000388,01000608,0013.06,0008.76,0004.32,0001.74,0001.61,0000.68,0035.97,0031.85,0025.71,26.6,00.9,0674.3,34.8
2016-08-04T00:55:00Z,0000388,01000608,0013.10,0008.99,0005.49,0002.16,0001.62,0000.93,0042.17,0037.03,0029.51,26.6,00.8,0674.3,34.8
2016-08-04T00:56:00Z,0000388,01000608,0014.38,0009.21,0006.21,0002.52,0001.69,0001.08,0043.83,0038.71,0030.62,26.6,00.9,0674.3,34.8
2016-08-04T00:57:00Z,0000388,40000608,,,,,,,,,,,,0674.6,34.8
2016-08-04T00:58:00Z,0000388,60000608,,,,,,,,,,26.5,01.0,0673.4,34.8
2016-08-04T00:59:00Z,0000388,20000608,,,,,,,,,,26.5,01.0,0673.3,34.8
2016-08-04T01:00:00Z,0000388,20000608,,,,,,,,,,26.5,01.0,0673.3,34.7
2016-08-04T01:01:00Z,0000388,21000608,,,,,,,,,,26.5,00.9,0673.3,34.7
2016-08-04T01:02:00Z,0000388,21000608,,,,,,,,,,26.5,00.8,0673.3,34.7
2016-08-04T01:03:00Z,0000388,61000608,,,,,,,,,,26.5,00.8,0673.3,34.7
2016-08-04T01:04:00Z,0000388,41000608,0004.22,0003.44,0002.18,0000.82,0000.58,0000.52,0010.93,0009.68,0007.64,26.5,00.7,0674.2,34.7
2016-08-04T01:05:00Z,0000388,01000608,0005.61,0004.22,0002.88,0001.10,0001.11,0000.66,0016.41,0014.78,0011.61,26.5,00.7,0674.3,34.7
2016-08-04T01:06:00Z,0000388,01000608,0010.50,0008.30,0004.57,0002.29,0001.30,0000.56,0031.26,0027.60,0022.37,26.5,00.7,0674.3,34.7
2016-08-04T01:07:00Z,0000388,01000608,0009.62,0006.51,0004.40,0001.22,0001.78,0001.04,0027.16,0024.00,0019.40,26.5,00.7,0674.3,34.7
2016-08-04T01:08:00Z,0000388,01000608,0008.62,0006.09,0004.27,0001.79,0001.33,0000.64,0023.07,0020.33,0016.18,26.6,00.7,0674.3,34.7
2016-08-04T01:09:00Z,0000388,01000608,0013.30,0008.89,0005.77,0002.82,0002.03,0001.21,0040.35,0035.69,0028.09,26.5,00.8,0674.3,34.7
2016-08-04T01:10:00Z,0000388,01000608,0015.33,0011.24,0006.62,0002.96,0002.00,0001.44,0048.75,0043.27,0034.59,26.5,00.7,0674.3,34.7
2016-08-04T01:11:00Z,0000388,01000608,0014.62,0010.27,0006.16,0002.98,0001.64,0001.59,0047.64,0042.02,0033.58,26.5,00.7,0674.3,34.7
2016-08-04T01:12:00Z,0000388,01000608,0015.55,0010.90,0007.12,0002.04,0002.00,0001.32,0050.11,0044.02,0035.11,26.5,00.8,0674.3,34.7
2016-08-04T01:13:00Z,0000388,01000608,0016.29,0010.93,0007.33,0002.85,0001.34,0001.41,0052.37,0046.30,0036.93,26.5,00.7,0674.3,34.7
2016-08-04T01:14:00Z,0000388,01000608,0014.58,0010.85,0007.07,0002.38,0002.14,0001.49,0051.10,0045.01,0035.85,26.5,00.7,0674.3,34.7
2016-08-04T01:15:00Z,0000388,01000608,0011.61,0009.52,0005.14,0002.54,0001.47,0001.05,0041.25,0036.34,0028.65,26.6,00.7,0674.3,34.8
2016-08-04T01:16:00Z,0000388,01000608,0006.85,0005.63,0003.04,0001.25,0000.98,0000.33,0023.06,0020.62,0017.01,26.5,00.7,0674.3,34.8
2016-08-04T01:17:00Z,0000388,01000608,0006.11,0004.60,0002.68,0001.07,0000.70,0000.47,0016.04,0013.94,0010.86,26.6,00.6,0674.3,34.8
2016-08-04T01:18:00Z,0000388,01000608,0005.85,0004.61,0003.07,0000.88,0000.84,0000.72,0018.47,0016.59,0013.14,26.5,00.7,0674.3,34.8
2016-08-04T01:19:00Z,0000388,01000608,0002.78,0001.86,0001.76,0000.22,0000.16,0000.67,0007.93,0007.02,0006.08,26.5,00.7,0674.3,34.8
2016-08-04T01:20:00Z,0000388,01000608,0001.81,0001.60,0000.64,0000.02,0000.50,0000.20,0001.15,0000.89,0000.34,26.6,00.6,0674.3,34.8
2016-08-04T01:21:00Z,0000388,01000608,0001.60,0001.50,0000.99,0000.38,0000.39,0000.22,0002.75,0002.38,0002.04,26.5,00.7,0674.3,34.8
2016-08-04T01:22:00Z,0000388,01000608,0002.82,0001.74,0000.80,0000.91,0000.28,0000.11,0003.98,0003.43,0002.81,26.5,00.6,0674.3,34.8
2016-08-04T01:23:00Z,0000388,01000608,0002.62,0001.70,0000.55,0000.74,0000.36,0000.13,0004.99,0004.51,0003.78,26.6,00.7,0674.4,34.8
2016-08-04T01:24:00Z,0000388,01000608,0000.99,0000.74,0000.65,0000.72,0000.45,0000.24,0001.29,0001.09,0000.85,26.5,00.7,0674.4,34.8
2016-08-04T01:25:00Z,0000388,01000608,0003.07,0001.98,0001.28,0001.02,0000.61,0000.19,0004.79,0004.34,0003.08,26.6,00.7,0674.4,34.8
2016-08-04T01:26:00Z,0000388,01000608,0009.78,0007.56,0004.18,0001.88,0001.56,0000.50,0031.34,0027.56,0021.83,26.6,00.7,0674.4,34.8
2016-08-04T01:27:00Z,0000388,01000608,0008.60,0006.12,0004.11,0001.83,0001.17,0000.93,0028.27,0024.90,0020.22,26.6,00.6,0674.4,34.8
2016-08-04T01:28:00Z,0000388,01000608,0003.61,0003.41,0001.62,0000.50,0000.81,0000.36,0010.61,0009.45,0007.34,26.6,00.6,0674.4,34.8
2016-08-04T01:29:00Z,0000388,01000608,0003.71,0002.09,0001.65,-000.11,0000.41,0000.39,0007.86,0006.94,0005.51,26.6,00.6,0674.4,34.8
2016-08-04T01:30:00Z,0000388,01000608,0002.77,0001.97,0001.41,0000.71,0000.14,0000.06,0006.91,0006.13,0004.86,26.6,00.7,0674.4,34.8
2016-08-04T01:31:00Z,0000388,01000608,0002.72,0001.59,0000.67,0000.52,0000.34,-000.19,0004.70,0004.27,0003.57,26.6,00.7,0674.4,34.8
2016-08-04T01:32:00Z,0000388,01000608,0002.94,0002.25,0000.75,0000.80,0000.53,0000.25,0005.33,0004.62,0003.81,26.5,00.6,0674.4,34.8
2016-08-04T01:33:00Z,0000388,01000608,0001.63,0001.29,0000.98,0000.22,0000.12,0000.20,0002.00,0001.92,0001.41,26.6,00.6,0674.4,34.8
2016-08-04T01:34:00Z,0000388,01000608,0000.80,0001.56,0001.13,0000.85,0000.08,0000.16,0001.69,0001.46,0001.02,26.5,00.7,0674.4,34.8
2016-08-04T01:35:00Z,0000388,01000608,0001.78,0001.35,0000.99,0000.44,-000.02,0000.50,0002.70,0002.25,0001.73,26.5,00.6,0674.4,34.8
2016-08-04T01:36:00Z,0000388,01000608,0002.05,0002.03,0000.61,0000.45,0000.36,0000.09,0003.83,0003.33,0002.84,26.5,00.7,0674.4,34.8
2016-08-04T01:37:00Z,0000388,01000608,0001.52,0001.24,0001.09,0000.28,0000.30,-000.05,0003.56,0003.17,0002.61,26.5,00.8,0674.5,34.8
2016-08-04T01:38:00Z,0000388,01000608,0003.14,0002.36,0001.60,0000.93,0000.67,0000.00,0006.46,0005.53,0004.49,26.6,00.7,0674.4,34.8
2016-08-04T01:39:00Z,0000388,01000608,0009.84,0007.23,0004.60,0001.24,0001.37,0001.11,0023.92,0021.38,0016.94,26.6,00.5,0674.4,34.8
2016-08-04T01:40:00Z,0000388,01000608,0017.59,0013.13,0007.94,0002.74,0002.28,0001.38,0049.17,0044.06,0035.58,26.6,00.6,0674.4,34.8
2016-08-04T01:41:00Z,0000388,01000608,0011.00,0007.68,0005.95,0001.79,0001.84,0000.99,0030.56,0027.41,0022.11,26.6,00.6,0674.4,34.8
2016-08-04T01:42:00Z,0000388,01000608,0015.02,0011.13,0006.83,0003.28,0001.86,0001.29,0041.58,0036.83,0029.82,26.6,00.5,0674.4,34.8
2016-08-04T01:43:00Z,0000388,01000608,0015.62,0010.48,0006.58,0002.70,0001.78,0001.71,0042.90,0038.08,0030.41,26.6,00.5,0674.4,34.8
2016-08-04T01:44:00Z,0000388,01000608,0014.55,0010.17,0006.89,0002.73,0001.78,0000.91,0042.67,0037.91,0030.08,26.6,00.5,0674.4,34.8
2016-08-04T01:45:00Z,0000388,01000608,0016.11,0011.29,0007.11,0002.74,0002.05,0001.54,0046.23,0041.14,0033.42,26.6,00.6,0674.4,34.8
2016-08-04T01:46:00Z,0000388,01000608,0016.39,0011.97,0008.04,0002.77,0002.33,0001.41,,,,26.5,00.6,0674.4,34.8
2016-08-04T01:47:00Z,0000388,01000608,0015.85,0011.52,0007.25,0002.77,0002.53,0001.87,,,,26.5,00.4,0674.4,34.8
2016-08-04T01:48:00Z,0000388,01000608,0015.81,0011.25,0006.88,0002.57,0001.89,0001.62,,,,26.5,00.6,0674.4,34.8
2016-08-04T01:49:00Z,0000388,01000608,0013.28,0009.81,0005.95,0002.54,0001.67,0001.37,0044.62,0039.34,0031.19,26.5,00.6,0674.4,34.8
2016-08-04T01:50:00Z,0000388,01000608,0011.29,0008.85,0005.55,0002.37,0001.98,0000.86,0038.32,0033.72,0027.04,26.5,00.6,0674.4,34.8
2016-08-04T01:51:00Z,0000388,01000608,0006.82,0005.74,0003.56,0001.97,0001.17,0001.10,0025.18,0022.55,0017.67,26.5,00.7,0674.4,34.8
2016-08-04T01:52:00Z,0000388,01000608,0002.10,0002.84,0001.39,0001.27,0000.81,0000.46,0007.64,0006.49,0005.27,26.5,00.6,0674.4,34.8
2016-08-04T01:53:00Z,0000388,01000608,0001.73,0001.28,0000.52,0000.75,0000.05,0000.19,0000.86,0000.95,0000.82,26.5,00.5,0674.4,34.8
2016-08-04T01:54:00Z,0000388,01000608,0001.53,0000.76,0000.54,0000.27,-000.12,-000.17,0000.25,0000.22,0000.06,26.5,00.6,0674.4,34.8
2016-08-04T01:55:00Z,0000388,01000608,0001.98,0000.65,0000.47,0000.16,0000.16,0000.20,0000.38,0000.23,0000.04,26.5,00.5,0674.4,34.8
2016-08-04T01:56:00Z,0000388,01000608,0001.03,0000.96,0000.89,0000.53,0000.25,-000.08,0000.10,0000.20,0000.11,26.5,00.5,0674.4,34.8
2016-08-04T01:57:00Z,0000388,41000608,,,,,,,,,,,,0674.1,34.8
2016-08-04T01:58:00Z,0000388,61000608,,,,,,,,,,26.3,00.6,0673.4,34.8
2016-08-04T01:59:00Z,0000388,21000608,,,,,,,,,,26.3,00.6,0673.4,34.8
2016-08-04T02:00:00Z,0000388,21000608,,,,,,,,,,26.3,00.4,0673.4,34.8
2016-08-04T02:01:00Z,0000388,21000608,,,,,,,,,,26.3,00.4,0673.4,34.8
2016-08-04T02:02:00Z,0000388,21000608,,,,,,,,,,26.3,00.4,0673.4,34.8
2016-08-04T02:03:00Z,0000388,61000608,,,,,,,,,,26.4,00.4,0673.4,34.8
2016-08-04T02:04:00Z,0000388,41000608,0001.28,0001.37,0000.74,0000.02,0000.02,0000.63,0000.30,0000.26,0000.41,26.5,00.6,0674.3,34.8
2016-08-04T02:05:00Z,0000388,01000608,0001.56,0001.62,0000.25,0000.47,-000.06,0000.06,0000.18,0000.07,0000.23,26.5,00.5,0674.3,34.8
2016-08-04T02:06:00Z,0000388,01000608,0000.80,0001.48,0000.93,0000.42,-000.02,0000.06,0000.06,0000.12,-000.10,26.5,00.6,0674.3,34.8
2016-08-04T02:07:00Z,0000388,01000608,0001.37,0001.67,0000.64,0000.19,0000.22,0000.25,0000.18,0000.19,0000.13,26.5,00.6,0674.3,34.8
2016-08-04T02:08:00Z,0000388,01000608,0001.26,0001.37,0000.41,0000.83,0000.14,-000.11,0000.08,-000.09,0000.02,26.5,00.6,0674.3,34.8
2016-08-04T02:09:00Z,0000388,01000608,0001.25,0000.67,0000.73,-000.14,-000.27,0000.02,0000.07,0000.17,0000.01,26.5,00.6,0674.2,34.8
2016-08-04T02:10:00Z,0000388,01000608,0000.29,0001.43,0001.10,-000.06,-000.05,0000.05,0000.12,0000.01,0000.09,26.5,00.6,0674.2,34.8
2016-08-04T02:11:00Z,0000388,01000608,0002.56,0001.04,0000.48,0000.02,0000.16,0000.30,-000.05,-000.01,0000.12,26.5,00.6,0674.2,34.8
2016-08-04T02:12:00Z,0000388,01000608,0000.84,0001.07,0000.55,0000.20,-000.27,0000.17,0000.11,0000.09,-000.00,26.5,00.7,0674.3,34.8
2016-08-04T02:13:00Z,0000388,01000608,0000.54,0001.27,0000.08,0000.45,-000.45,0000.24,0000.15,0000.08,0000.02,26.5,00.7,0674.2,34.8
2016-08-04T02:14:00Z,0000388,01000608,0000.80,0000.92,0000.43,0000.27,-000.59,-000.05,-000.10,0000.02,-000.01,26.5,00.6,0674.3,34.8
2016-08-04T02:15:00Z,0000388,01000608,0000.33,0000.81,0000.59,0000.09,-000.34,0000.56,-000.10,0000.15,-000.06,26.5,00.6,0674.3,34.8
2016-08-04T02:16:00Z,0000388,01000608,0000.90,0000.43,0000.00,0000.49,0000.23,0000.13,0000.33,-000.02,-000.07,26.5,00.6,0674.3,34.8
2016-08-04T02:17:00Z,0000388,01000608,0000.89,0001.30,0000.32,-000.02,-000.06,0000.47,-000.07,0000.13,0000.25,26.5,00.5,0674.3,34.8
2016-08-04T02:18:00Z,0000388,01000608,0001.24,0001.26,0000.08,0000.16,-000.11,0000.00,0000.24,0000.05,-000.03,26.5,00.5,0674.3,34.8
2016-08-04T02:19:00Z,0000388,01000608,0000.82,0000.94,0000.18,0000.52,0000.02,-000.16,0000.01,-000.03,0000.06,26.5,00.5,0674.3,34.8
2016-08-04T02:20:00Z,0000388,01000608,0000.34,0001.08,-000.20,-000.22,0000.06,0000.08,0000.04,0000.12,0000.01,26.4,00.5,0674.3,34.8
2016-08-04T02:21:00Z,0000388,01000608,0001.85,0000.03,0000.82,0000.09,-000.50,0000.11,0000.28,0000.13,0000.29,26.4,00.5,0674.3,34.8
2016-08-04T02:22:00Z,0000388,01000608,0000.78,0000.78,0000.10,-000.34,-000.36,0000.16,0000.01,0000.02,-000.03,26.5,00.5,0674.3,34.8
2016-08-04T02:23:00Z,0000388,01000608,0000.57,0000.38,0000.38,0000.74,-000.39,0000.55,0000.20,-000.06,-000.01,26.5,00.5,0674.3,34.8
2016-08-04T02:24:00Z,0000388,01000608,0001.34,0000.98,0000.81,0000.66,0000.11,0000.46,0000.03,0000.15,0000.01,26.5,00.6,0674.3,34.8
2016-08-04T02:25:00Z,0000388,01000608,0000.54,0000.95,0000.62,0000.02,-000.78,0000.20,0000.12,0000.23,0000.23,26.5,00.6,0674.3,34.8
2016-08-04T02:26:00Z,0000388,01000608,0001.41,0000.69,0000.29,0000.25,-000.03,0000.47,-000.11,-000.20,-000.25,26.5,00.6,0674.3,34.8
2016-08-04T02:27:00Z,0000388,01000608,0000.71,0000.70,0000.52,0000.13,-000.06,0000.47,-000.04,0000.10,0000.20,26.6,00.6,0674.3,34.8
2016-08-04T02:28:00Z,0000388,01000608,-000.45,0000.19,0000.19,0000.31,-000.34,-000.05,0000.16,-000.14,-000.10,26.6,00.6,0674.3,34.8
2016-08-04T02:29:00Z,0000388,01000608,0000.51,0000.19,-000.29,0000.83,-000.14,-000.11,-000.03,0000.14,-000.16,26.5,00.5,0674.3,34.8
2016-08-04T02:30:00Z,0000388,01000608,0000.81,0000.60,0000.13,0000.72,-000.17,0000.14,0000.01,0000.03,0000.21,26.5,00.5,0674.3,34.8
2016-08-04T02:31:00Z,0000388,01000608,0000.44,0000.50,0000.23,0000.20,-000.09,0000.71,0000.11,0000.15,-000.06,26.6,00.5,0674.3,34.8
2016-08-04T02:32:00Z,0000388,01000608,0000.53,0000.64,0000.35,0000.61,-000.33,0000.22,-000.11,0000.07,0000.12,26.6,00.5,0674.2,34.8
2016-08-04T02:33:00Z,0000388,01000608,0001.53,0000.02,-000.13,0000.14,-000.42,-000.19,0000.04,-000.07,0000.10,26.5,00.6,0674.3,34.8
2016-08-04T02:34:00Z,0000388,01000608,-000.92,0000.27,0000.43,0000.05,-000.37,-000.31,-000.06,0000.17,-000.10,26.5,00.6,0674.3,34.8
2016-08-04T02:35:00Z,0000388,01000608,0001.02,0000.41,-000.13,0000.27,-000.22,-000.03,0000.25,-000.00,0000.18,26.5,00.6,0674.3,34.8
2016-08-04T02:36:00Z,0000388,01000608,0001.02,0000.15,0000.23,0000.06,-000.42,0000.00,0000.14,0000.12,0000.14,26.5,00.5,0674.3,34.8
2016-08-04T02:37:00Z,0000388,01000608,0001.01,0000.80,0000.30,0000.49,-000.53,0000.17,-000.20,-000.03,-000.34,26.5,00.5,0674.3,34.8
2016-08-04T02:38:00Z,0000388,01000608,-000.66,0000.34,-000.06,0000.47,-000.36,0000.09,0000.13,-000.20,0000.21,26.6,00.5,0674.3,34.8
2016-08-04T02:39:00Z,0000388,01000608,0000.96,0000.53,0000.85,-000.09,-000.52,0000.39,0000.10,0000.28,0000.10,26.6,00.4,0674.3,34.8
2016-08-04T02:40:00Z,0000388,01000608,0000.34,0000.35,0000.57,0000.19,-000.56,0000.13,-000.01,-000.07,0000.06,26.7,00.4,0674.3,34.8
2016-08-04T02:41:00Z,0000388,01000608,0000.32,0000.72,0000.41,-000.13,-000.22,0000.31,0000.02,0000.02,0000.14,26.7,00.4,0674.3,34.8
2016-08-04T02:42:00Z,0000388,01000608,0001.33,0001.33,0000.41,0000.35,-000.23,0000.27,0000.06,0000.02,-000.20,26.7,00.6,0674.2,34.8
2016-08-04T02:43:00Z,0000388,01000608,0000.48,0000.84,0000.34,-000.06,-000.27,0000.44,0000.05,0000.03,0000.06,26.7,00.6,0674.2,34.8
2016-08-04T02:44:00Z,0000388,01000608,0000.52,0000.61,0000.89,0000.49,-000.05,0000.25,-000.06,-000.10,-000.24,26.7,00.6,0674.2,34.8
2016-08-04T02:45:00Z,0000388,01000608,0001.38,0000.85,-000.13,0000.42,-000.05,0000.49,0000.03,0000.13,0000.26,26.7,00.6,0674.2,34.8
2016-08-04T02:46:00Z,0000388,01000608,0001.51,0000.12,0000.70,-000.14,-000.19,0000.22,0000.09,0000.06,-000.02,26.7,00.6,0674.2,34.8
2016-08-04T02:47:00Z,0000388,01000608,0000.35,0001.41,0000.29,-000.11,-000.20,-000.28,0000.02,0000.08,0000.10,26.7,00.7,0674.2,34.8
2016-08-04T02:48:00Z,0000388,01000608,0000.47,0000.22,0000.44,0000.17,-000.28,0000.19,0000.06,0000.06,-000.01,26.7,00.6,0674.2,34.8
2016-08-04T02:49:00Z,0000388,01000608,0001.26,0000.72,0000.20,-000.02,-000.05,0000.41,0000.15,-000.07,-000.01,26.7,00.8,0674.2,34.8
2016-08-04T02:50:00Z,0000388,01000608,0000.58,0000.69,0000.02,0000.09,-000.52,0000.22,-000.03,0000.08,-000.02,26.7,00.7,0674.2,34.8
2016-08-04T02:51:00Z,0000388,01000608,0000.81,-000.05,0000.19,0000.19,0000.02,0000.19,-000.05,0000.03,0000.15,26.6,00.7,0674.1,34.8
2016-08-04T02:52:00Z,0000388,01000608,0000.50,0000.52,0000.70,0000.63,0000.23,0000.27,0000.16,0000.07,0000.17,26.6,00.7,0674.1,34.8
2016-08-04T02:53:00Z,0000388,01000608,0000.55,0000.65,0000.35,-000.31,-000.14,0000.44,0000.10,0000.00,0000.04,26.7,00.6,0674.1,34.8
2016-08-04T02:54:00Z,0000388,01000608,0000.36,0000.39,-000.34,0000.22,-000.47,0000.05,-000.13,0000.16,0000.02,26.7,00.7,0674.1,34.8
2016-08-04T02:55:00Z,0000388,01000608,0000.20,0000.68,0000.00,0000.19,-000.30,0000.39,0000.04,-000.04,-000.14,26.7,00.6,0674.1,34.8
2016-08-04T02:56:00Z,0000388,01000608,0000.39,0000.18,0000.75,0000.36,0000.16,0000.14,-000.01,-000.12,0000.14,26.7,00.7,0674.1,34.8
2016-08-04T02:57:00Z,0000388,40000608,,,,,,,,,,,,0674.1,34.8
2016-08-04T02:58:00Z,0000388,61000608,,,,,,,,,,26.5,00.6,0673.1,34.8
2016-08-04T02:59:00Z,0000388,21000608,,,,,,,,,,26.5,00.4,0673.0,34.8
2016-08-04T03:00:00Z,0000388,21000608,,,,,,,,,,26.5,00.4,0673.0,34.8
2016-08-04T03:01:00Z,0000388,21000608,,,,,,,,,,26.5,00.4,0673.0,34.8
2016-08-04T03:02:00Z,0000388,21000608,,,,,,,,,,26.5,00.4,0673.0,34.8
2016-08-04T03:03:00Z,0000388,61000608,,,,,,,,,,26.6,00.4,0673.0,34.8
2016-08-04T03:04:00Z,0000388,41000608,0000.78,0000.51,-000.35,0000.28,-000.17,-000.03,0000.20,-000.06,0000.00,26.7,00.5,0673.9,34.8
2016-08-04T03:05:00Z,0000388,01000608,0000.31,-000.26,-000.23,0000.06,-000.09,0000.13,0000.07,0000.11,0000.51,26.6,00.5,0673.9,34.8
2016-08-04T03:06:00Z,0000388,01000608,0000.03,-000.11,-000.34,-000.27,0000.25,0000.30,0000.08,-000.12,-000.14,26.6,00.4,0673.9,34.8
2016-08-04T03:07:00Z,0000388,01000608,0000.12,0000.23,0000.17,0000.03,-000.02,0000.35,-000.11,0000.11,-000.12,26.7,00.4,0673.9,34.8
2016-08-04T03:08:00Z,0000388,01000608,0000.00,0000.22,-000.02,-000.16,0000.11,0000.24,0000.16,0000.07,-000.14,26.6,00.4,0673.9,34.8
2016-08-04T03:09:00Z,0000388,01000608,0000.93,-000.08,-000.01,0000.53,-000.03,0000.05,0000.01,0000.11,0000.27,26.6,00.4,0673.9,34.8
2016-08-04T03:10:00Z,0000388,01000608,0000.19,0000.62,-000.17,-000.02,0000.13,0000.08,-000.09,-000.07,0000.09,26.6,00.4,0673.9,34.8
2016-08-04T03:11:00Z,0000388,01000608,0000.74,0000.23,0000.00,0000.19,0000.19,0000.41,-000.03,-000.04,-000.16,26.7,00.4,0673.9,34.8
2016-08-04T03:12:00Z,0000388,01000608,0000.29,0000.23,-000.22,0000.02,0000.39,0000.03,0000.05,0000.09,0000.14,26.7,00.5,0673.9,34.8